Wind_Speed
6 9 7 2 2 1 2 7 4 8 9 13 30 9 11 6 2 3 27 34 32 28 24 22 20 17 15 13 14 13 12 12 11 12 13 12 14 13 11 12 11 12 13 11 12 14 14 15 16
12 9 4 3 1 1 3 5 8 6 12 27 14 20 5 4 8 25 40 31 31 27 23 22 20 17 15 14 14 13 12 12 12 13 12 14 14 12 12 12 14 15 14 11 13 15 16 16 16
13 5 2 2 2 3 3 8 13 21 30 20 9 11 5 6 22 41 38 34 29 25 22 21 19 16 15 13 13 12 11 12 13 13 12 14 14 14 13 14 17 15 14 15 16 17 17 19 19
10 5 4 2 2 6 5 7 25 20 14 10 21 11 11 17 27 31 38 33 28 25 23 21 19 17 15 14 13 12 12 14 14 13 14 13 15 15 14 14 17 16 16 17 18 18 19 20 19
7 2 2 3 4 6 7 3 22 11 5 20 12 9 9 14 24 36 33 30 28 27 24 21 18 16 15 14 14 13 13 14 14 15 14 13 15 15 15 15 15 16 17 17 20 20 22 22 18
2 2 1 5 15 8 6 11 14 19 20 20 18 20 7 25 33 33 28 29 27 26 24 21 18 16 14 14 14 15 15 15 15 15 14 14 14 14 15 17 16 16 17 17 18 21 23 21 19
2 1 0 2 7 7 6 15 10 19 19 13 25 10 22 34 32 30 25 27 24 23 22 21 19 18 16 15 15 16 16 16 17 15 15 14 13 13 13 14 15 16 17 18 19 22 24 22 17
5 1 2 3 1 5 3 13 8 19 9 25 25 9 26 38 34 28 25 23 21 22 20 20 19 17 16 16 16 17 17 17 18 18 16 15 15 14 14 14 14 15 16 16 18 23 22 19 16
4 2 3 3 2 3 2 5 13 5 22 11 12 22 42 43 35 32 30 26 26 22 20 20 18 18 17 17 18 18 19 19 19 19 18 17 16 16 15 14 14 15 16 16 19 23 21 18 16
8 4 4 1 4 4 3 6 13 2 15 3 8 33 42 44 34 37 33 29 28 25 21 19 19 19 17 18 18 20 21 20 18 17 16 14 15 14 15 15 15 15 15 16 19 20 17 14 11
5 6 6 5 9 12 8 7 3 5 5 11 28 40 43 42 35 37 33 28 25 24 20 19 20 20 18 19 21 22 21 21 16 17 16 13 14 15 15 15 15 17 16 15 22 13 17 13 11
3 12 14 16 15 16 9 3 8 6 3 7 35 46 46 39 36 38 33 26 26 27 24 20 24 21 23 21 21 19 18 16 15 14 12 14 13 15 12 13 14 15 11 13 14 14 18 18 12
9 15 14 21 16 12 18 9 4 7 4 11 38 39 41 38 36 37 31 25 28 28 24 23 22 26 24 20 20 19 17 16 13 12 11 8 9 11 7 9 10 12 13 12 16 20 18 16 11
8 12 15 24 16 17 13 9 8 7 5 26 39 36 38 37 37 39 34 30 30 27 26 24 24 22 19 17 16 17 18 14 10 8 8 8 10 8 7 7 9 12 7 14 13 13 12 14 12
17 6 4 16 21 8 21 6 2 6 13 32 31 31 31 34 32 41 35 32 31 26 27 25 24 20 16 10 14 15 17 13 11 9 7 6 8 11 9 7 7 12 13 15 15 14 12 10 12
4 3 3 5 21 14 6 4 8 10 12 29 30 30 31 33 34 37 37 34 32 26 32 26 24 21 17 13 17 14 14 14 14 9 5 8 9 12 13 10 10 14 13 14 12 10 10 10 12
7 2 4 7 24 10 9 5 14 30 25 34 33 31 29 33 24 41 41 36 32 26 34 30 26 26 24 19 17 17 15 12 15 9 9 10 14 11 10 9 12 12 12 13 13 10 10 11 10
4 3 5 4 3 7 11 6 21 28 19 26 35 34 27 35 29 40 42 36 32 31 32 28 24 26 28 24 21 18 16 13 10 10 12 12 16 12 12 11 9 12 10 11 13 13 12 10 8
4 4 8 14 10 6 16 14 23 26 17 20 26 35 38 29 28 36 42 40 37 34 35 30 25 25 32 30 25 21 18 16 13 13 11 11 13 14 13 13 13 12 10 10 12 11 8 11 10
6 7 12 11 5 2 9 13 15 19 19 25 30 29 34 40 33 42 48 44 42 38 36 32 27 23 27 27 30 23 22 17 12 13 12 10 12 11 10 17 14 11 13 14 13 10 7 11 5
6 6 11 10 6 8 12 8 12 12 16 21 29 39 37 40 38 40 47 48 45 43 40 35 30 24 23 26 32 25 21 19 19 17 15 10 12 11 12 15 12 11 15 14 13 11 8 10 7
7 7 10 6 3 1 4 3 8 14 13 15 30 35 36 43 39 41 49 51 50 45 41 37 33 28 26 25 35 30 28 27 22 18 14 11 12 11 10 10 11 12 12 14 14 13 11 12 10
11 10 7 2 3 5 3 5 4 14 12 14 32 37 36 49 49 46 45 52 51 47 44 40 36 31 29 28 38 31 28 25 21 19 17 14 11 13 11 8 11 11 12 12 15 15 14 11 10
7 4 7 5 3 4 7 4 2 13 26 20 28 30 38 45 52 47 39 47 50 49 47 42 38 35 32 32 31 36 31 29 25 20 20 17 14 13 12 8 6 10 13 11 15 14 15 10 11
3 6 3 4 4 5 2 4 8 19 18 25 26 32 40 39 43 51 40 44 51 53 50 45 41 39 35 36 33 34 35 31 26 22 21 20 18 15 12 12 10 10 11 12 12 13 16 14 13
3 7 5 5 3 4 6 4 5 11 24 35 40 45 42 30 40 50 52 43 53 54 52 48 45 41 39 37 37 34 36 35 30 26 27 24 22 16 9 10 10 8 9 11 9 12 15 16 14
8 2 7 6 1 4 3 8 9 17 15 14 33 34 40 41 34 45 50 44 49 53 52 52 48 44 42 39 37 38 37 38 36 31 25 26 21 14 16 14 12 10 8 9 12 11 12 15 17
7 6 3 3 5 3 4 5 3 16 20 21 13 32 41 37 36 38 41 44 43 49 52 51 50 47 44 42 38 39 39 39 39 34 26 26 22 19 18 17 16 15 13 11 12 12 14 14 14
7 8 6 1 4 6 2 3 6 12 16 20 21 34 36 43 40 48 43 46 52 41 46 52 53 50 47 44 40 39 42 41 41 40 32 29 26 24 22 21 19 22 17 13 14 13 12 13 14
6 8 6 4 7 3 3 2 4 12 24 34 29 7 23 36 41 45 46 37 43 46 44 50 51 52 52 43 41 39 40 43 41 43 40 33 31 30 27 26 21 23 21 16 15 15 16 15 16
Wind_Direction
127 138 160 159 246 147 173 250 279 107 128 165 157 156 152 78 134 180 149 160 159 151 150 154 150 143 132 133 145 144 129 120 113 109 114 109 107 109 106 112 119 128 137 139 140 136 130 124 120
153 151 168 259 221 81 241 248 177 158 125 136 120 124 94 89 124 136 149 158 159 152 152 155 151 140 132 133 140 142 138 127 122 119 118 116 113 111 104 108 115 112 119 128 135 137 134 128 124
167 143 263 238 54 199 234 239 140 126 131 134 109 81 69 100 142 142 155 158 158 153 154 153 148 142 145 142 141 139 133 130 124 121 116 114 111 105 106 99 115 118 114 121 120 131 131 132 127
166 183 263 284 189 233 229 193 130 125 108 108 106 82 77 128 132 157 155 158 157 156 155 151 149 150 146 141 134 130 130 127 124 120 115 110 108 109 108 107 112 117 114 113 122 124 130 130 117
176 206 268 284 269 270 205 330 128 134 63 129 124 104 98 147 155 151 154 160 158 155 156 150 148 145 142 141 139 136 132 129 128 122 118 114 113 112 108 115 112 113 115 115 118 128 131 121 116
255 219 296 5 4 348 342 210 145 118 120 110 102 109 109 150 148 152 155 156 157 154 154 148 148 146 145 137 134 133 133 131 127 122 117 115 113 116 118 118 113 111 108 114 122 134 133 122 122
238 220 222 66 37 353 338 312 269 131 134 112 130 109 138 149 153 153 151 154 155 157 156 155 155 150 144 138 136 134 131 131 126 121 114 111 108 113 117 114 116 114 112 115 123 137 137 133 133
224 245 178 181 304 277 262 318 72 115 110 131 122 153 160 155 160 156 151 156 163 162 161 157 155 151 150 145 142 130 129 127 125 119 110 105 101 102 108 117 116 116 116 120 124 137 145 141 132
217 278 274 284 230 195 203 1 344 26 137 144 346 172 157 154 163 164 160 160 164 164 164 159 155 153 147 142 136 132 133 133 127 119 113 109 102 100 107 118 115 120 122 122 126 139 142 133 132
196 174 246 46 124 156 194 80 292 160 139 145 17 150 157 158 160 167 166 163 168 163 164 162 155 150 143 140 137 135 135 129 121 126 123 110 100 102 105 118 119 122 121 123 131 134 139 140 127
225 226 148 183 154 137 152 202 274 299 172 177 167 158 164 166 162 172 172 168 167 163 160 161 151 145 140 139 138 136 129 131 125 118 121 125 109 106 119 129 126 126 125 132 138 126 146 149 126
253 249 170 167 173 156 150 1 304 302 175 232 176 167 164 170 169 177 171 165 162 157 153 148 143 141 137 131 136 138 128 124 131 130 119 118 124 126 132 123 131 142 139 130 146 149 140 130 131
232 250 218 174 183 179 132 148 208 259 311 182 179 176 167 173 170 183 176 168 164 157 154 148 139 142 141 141 132 138 132 125 115 114 122 126 122 159 160 157 130 147 146 143 131 142 146 139 130
250 265 250 167 165 167 145 168 138 252 176 160 172 178 175 172 173 175 175 175 171 168 159 149 149 148 149 151 142 141 134 136 122 116 99 131 152 118 151 158 150 136 159 159 155 151 137 134 116
253 265 305 159 166 166 131 104 173 154 177 163 179 178 178 176 177 179 178 181 172 181 169 162 161 158 163 176 183 166 155 163 157 138 124 140 145 134 141 120 111 151 131 145 141 147 135 135 127
12 58 3 150 172 173 206 172 189 181 205 168 174 188 182 186 179 192 179 181 179 186 184 173 170 173 169 171 168 170 172 168 174 170 157 139 171 137 130 114 126 132 141 129 129 131 144 143 131
17 275 300 309 178 151 213 130 171 204 177 164 174 184 189 196 175 185 178 179 183 184 186 180 181 188 177 173 166 164 166 173 182 181 160 153 153 152 142 138 132 136 134 135 132 117 133 157 164
260 340 325 244 320 144 178 187 185 195 182 168 174 185 189 197 197 189 182 185 189 185 188 190 187 191 186 180 175 173 177 172 175 169 159 152 161 154 157 160 157 149 155 138 153 152 162 159 159
250 291 279 286 276 223 192 160 182 187 200 180 169 180 190 196 205 196 190 188 191 187 190 195 197 205 199 190 188 183 187 185 175 175 157 148 160 165 164 163 160 152 159 179 156 148 155 171 170
266 256 279 285 265 177 166 172 166 187 197 186 186 189 194 188 193 194 189 188 192 192 195 200 212 212 204 204 191 192 192 190 189 183 169 148 155 168 172 166 162 167 174 161 163 160 165 157 142
249 226 263 249 328 47 101 127 176 203 210 205 209 199 200 192 181 185 189 192 193 197 200 207 213 216 202 203 190 192 189 193 190 190 178 165 158 165 166 171 172 159 174 182 178 166 166 163 154
265 224 253 275 31 102 194 175 205 196 202 233 210 199 207 200 191 186 193 195 197 200 204 209 213 216 209 201 195 195 192 194 198 194 189 182 176 182 184 182 185 176 171 185 177 181 181 171 175
241 256 236 288 338 108 332 92 292 175 217 216 216 213 212 202 195 190 192 201 203 202 204 208 213 216 215 204 202 202 197 197 201 198 193 192 189 186 176 169 193 203 188 177 180 184 178 173 179
250 273 44 44 74 352 155 122 251 181 213 213 226 223 208 200 199 197 192 200 206 204 205 207 211 214 217 212 206 209 203 197 203 207 200 198 199 186 190 196 190 190 191 188 184 187 181 181 186
97 61 7 1 10 228 46 74 229 214 216 210 216 219 213 209 203 199 191 198 205 205 205 208 210 213 218 218 214 210 208 200 206 206 209 208 203 202 204 207 203 190 189 185 195 190 195 192 185
260 150 152 179 176 260 349 231 261 216 216 212 210 212 208 217 200 203 196 201 203 207 207 210 212 215 217 221 220 213 209 207 208 211 216 221 218 209 211 189 183 184 198 200 207 196 195 202 198
323 50 196 124 115 66 264 304 323 27 7 283 213 209 211 222 207 205 205 200 205 209 211 213 215 218 220 222 224 219 214 210 208 214 215 216 218 217 209 204 202 200 205 210 210 205 208 210 212
99 281 307 15 180 200 295 320 297 11 352 339 257 206 205 202 210 200 200 203 207 215 218 218 220 221 222 223 226 224 218 213 210 212 217 213 213 213 214 222 230 223 225 232 222 212 212 214 215
353 23 343 164 128 159 157 298 56 33 17 346 314 218 193 185 189 192 197 205 208 210 216 219 221 222 223 224 227 227 223 216 213 213 214 215 213 215 220 225 241 232 228 238 231 225 213 215 208
100 70 41 44 314 26 139 92 345 39 29 11 352 191 200 194 183 181 193 206 214 211 212 218 222 224 228 227 227 227 228 222 216 215 215 216 220 223 229 233 232 223 226 234 235 230 223 221 214
Height
1523 1525 1525 1525 1528 1525 1524 1518 1504 1502 1504 1505 1509 1512 1515 1518 1520 1535 1531 1538 1544 1547 1550 1553 1555 1557 1558 1559 1561 1562 1564 1564 1565 1566 1567 1568 1568 1568 1568 1568 1568 1569 1570 1571 1572 1573 1574 1574 1575
1523 1524 1525 1522 1526 1531 1527 1509 1507 1501 1502 1507 1512 1512 1517 1521 1521 1525 1532 1540 1545 1547 1551 1554 1556 1557 1559 1560 1562 1563 1564 1565 1566 1567 1568 1569 1569 1570 1570 1570 1570 1571 1572 1573 1574 1574 1575 1576 1577
1524 1525 1525 1519 1525 1529 1522 1505 1500 1502 1504 1506 1512 1515 1519 1523 1523 1528 1534 1540 1545 1548 1552 1555 1557 1558 1559 1561 1563 1565 1565 1566 1567 1569 1569 1570 1570 1572 1572 1572 1572 1573 1573 1574 1575 1576 1577 1578 1579
1523 1526 1526 1525 1524 1515 1513 1500 1499 1505 1509 1508 1513 1520 1525 1525 1526 1528 1536 1541 1545 1549 1553 1555 1557 1559 1560 1562 1564 1566 1567 1568 1569 1571 1572 1573 1574 1573 1573 1574 1574 1575 1576 1577 1577 1578 1579 1580 1582
1523 1524 1526 1523 1507 1507 1511 1501 1501 1504 1509 1512 1512 1523 1528 1532 1530 1534 1540 1543 1547 1550 1553 1556 1558 1560 1561 1563 1565 1567 1569 1570 1571 1572 1573 1574 1574 1574 1575 1575 1576 1577 1578 1579 1579 1580 1582 1583 1583
1523 1523 1527 1528 1512 1513 1510 1507 1507 1507 1510 1514 1519 1523 1534 1536 1535 1538 1542 1546 1549 1551 1554 1557 1559 1561 1562 1563 1566 1568 1569 1571 1573 1574 1575 1576 1577 1577 1576 1576 1577 1579 1580 1581 1582 1583 1585 1586 1586
1523 1522 1524 1524 1523 1512 1524 1512 1512 1508 1511 1515 1518 1526 1536 1539 1541 1541 1545 1549 1551 1554 1555 1557 1560 1562 1563 1565 1567 1569 1571 1573 1575 1576 1577 1578 1578 1579 1580 1581 1581 1582 1582 1583 1584 1585 1586 1587 1588
1520 1519 1520 1520 1521 1515 1518 1522 1514 1513 1516 1518 1521 1526 1533 1537 1541 1544 1547 1550 1553 1556 1557 1559 1561 1563 1564 1566 1568 1571 1573 1575 1577 1578 1580 1581 1581 1581 1581 1583 1584 1585 1586 1586 1586 1588 1589 1589 1590
1519 1522 1522 1512 1511 1512 1516 1509 1518 1516 1520 1521 1523 1522 1529 1537 1541 1545 1547 1551 1554 1557 1559 1560 1562 1565 1566 1568 1570 1572 1573 1575 1578 1580 1581 1582 1582 1580 1581 1583 1585 1586 1587 1588 1589 1590 1592 1592 1593
1516 1521 1511 1507 1507 1507 1512 1518 1517 1523 1519 1519 1525 1531 1536 1539 1542 1544 1546 1550 1554 1557 1560 1561 1563 1566 1567 1570 1571 1573 1574 1577 1578 1580 1582 1582 1582 1582 1582 1584 1585 1587 1589 1591 1592 1593 1595 1596 1596
1509 1511 1508 1506 1508 1508 1515 1522 1526 1523 1523 1520 1525 1528 1535 1540 1543 1546 1548 1550 1552 1558 1561 1562 1565 1567 1569 1571 1573 1575 1576 1578 1579 1581 1582 1583 1583 1583 1583 1584 1586 1587 1589 1591 1593 1595 1595 1596 1597
1508 1499 1504 1507 1509 1507 1511 1517 1517 1519 1521 1522 1524 1525 1530 1539 1542 1544 1548 1552 1555 1558 1561 1564 1567 1568 1571 1573 1574 1576 1578 1579 1580 1582 1583 1584 1584 1583 1582 1584 1586 1588 1590 1592 1592 1595 1595 1597 1598
1504 1496 1501 1504 1509 1510 1507 1514 1517 1514 1517 1516 1525 1533 1531 1539 1542 1544 1549 1554 1557 1559 1562 1565 1568 1570 1572 1575 1576 1577 1578 1579 1580 1583 1585 1585 1583 1583 1583 1585 1588 1588 1591 1593 1593 1595 1597 1597 1598
1494 1495 1495 1502 1507 1508 1502 1513 1519 1519 1516 1521 1523 1530 1533 1537 1540 1544 1550 1553 1556 1559 1562 1566 1569 1572 1574 1576 1577 1579 1579 1579 1580 1583 1585 1586 1586 1585 1583 1585 1586 1589 1591 1593 1596 1597 1597 1597 1598
1493 1496 1491 1497 1501 1506 1506 1516 1522 1519 1518 1518 1527 1530 1535 1537 1543 1542 1548 1551 1553 1558 1562 1566 1569 1572 1575 1576 1578 1579 1580 1581 1582 1584 1586 1586 1587 1588 1586 1586 1586 1589 1592 1594 1596 1597 1598 1598 1599
1493 1495 1503 1495 1498 1503 1502 1521 1516 1519 1520 1524 1524 1531 1533 1537 1539 1543 1548 1550 1553 1557 1561 1566 1569 1572 1575 1577 1578 1579 1581 1583 1585 1586 1587 1587 1588 1589 1589 1589 1590 1590 1592 1595 1596 1597 1598 1599 1600
1503 1512 1504 1494 1491 1497 1506 1517 1518 1507 1514 1516 1522 1528 1532 1535 1539 1542 1546 1549 1551 1556 1561 1565 1568 1571 1575 1577 1579 1580 1582 1584 1586 1588 1588 1588 1589 1590 1591 1591 1592 1593 1594 1595 1597 1598 1598 1600 1602
1512 1510 1505 1503 1487 1493 1503 1505 1507 1508 1514 1514 1515 1522 1529 1533 1538 1540 1544 1546 1549 1554 1559 1564 1568 1571 1574 1577 1579 1581 1582 1584 1586 1587 1589 1589 1589 1591 1592 1593 1594 1595 1596 1597 1598 1599 1601 1602 1603
1500 1504 1506 1492 1486 1489 1493 1502 1501 1508 1512 1510 1513 1516 1517 1529 1535 1538 1542 1543 1547 1551 1557 1561 1565 1569 1572 1575 1578 1580 1581 1583 1584 1587 1589 1589 1589 1591 1592 1593 1595 1596 1596 1598 1600 1600 1601 1603 1604
1499 1506 1503 1490 1482 1485 1493 1499 1505 1507 1507 1508 1507 1512 1514 1517 1526 1532 1537 1540 1543 1547 1553 1558 1562 1566 1569 1572 1577 1579 1581 1582 1584 1586 1588 1589 1590 1591 1592 1593 1595 1596 1598 1599 1600 1601 1602 1603 1604
1499 1505 1500 1500 1485 1488 1497 1512 1512 1510 1511 1511 1508 1506 1511 1514 1518 1522 1531 1534 1538 1543 1548 1554 1558 1563 1567 1570 1575 1578 1580 1581 1582 1583 1586 1588 1588 1590 1591 1593 1594 1596 1597 1599 1600 1601 1603 1604 1604
1507 1487 1487 1489 1494 1514 1490 1533 1518 1512 1513 1510 1505 1503 1506 1508 1514 1518 1523 1529 1533 1538 1544 1549 1554 1559 1565 1568 1572 1574 1576 1578 1580 1581 1584 1586 1588 1589 1591 1593 1594 1596 1597 1598 1599 1601 1603 1604 1605
1491 1479 1483 1483 1493 1504 1501 1517 1515 1510 1514 1507 1500 1499 1498 1502 1504 1508 1515 1521 1529 1535 1539 1544 1550 1555 1561 1565 1568 1572 1575 1577 1579 1581 1583 1585 1587 1589 1590 1592 1593 1594 1595 1597 1598 1600 1602 1603 1604
1474 1479 1487 1494 1503 1524 1513 1511 1518 1508 1491 1491 1493 1492 1492 1495 1500 1505 1510 1518 1524 1530 1535 1540 1545 1551 1556 1561 1565 1569 1572 1574 1576 1578 1581 1583 1585 1587 1588 1590 1591 1592 1594 1595 1597 1599 1601 1602 1603
1475 1498 1527 1528 1531 1533 1505 1513 1504 1485 1479 1480 1481 1485 1489 1493 1498 1501 1507 1512 1519 1524 1529 1535 1540 1546 1551 1557 1561 1565 1569 1572 1574 1576 1578 1581 1583 1584 1586 1587 1589 1591 1592 1594 1595 1597 1599 1601 1602
1484 1494 1523 1531 1537 1526 1502 1510 1495 1471 1467 1466 1468 1470 1481 1490 1492 1496 1500 1507 1510 1517 1523 1530 1535 1541 1546 1551 1557 1562 1566 1569 1572 1574 1577 1579 1581 1582 1585 1586 1588 1589 1591 1592 1594 1595 1597 1599 1601
1489 1496 1489 1511 1512 1528 1516 1495 1473 1477 1477 1473 1464 1469 1473 1477 1482 1489 1497 1502 1506 1510 1516 1523 1529 1535 1541 1546 1552 1558 1562 1565 1568 1572 1574 1577 1579 1581 1584 1585 1587 1588 1589 1591 1592 1593 1595 1596 1599
1498 1493 1500 1513 1526 1532 1520 1511 1506 1496 1486 1470 1464 1461 1462 1471 1476 1483 1491 1500 1504 1506 1512 1518 1522 1527 1534 1542 1547 1552 1557 1561 1565 1569 1571 1573 1576 1579 1582 1583 1585 1586 1587 1588 1590 1591 1592 1593 1595
1508 1518 1513 1505 1513 1529 1532 1523 1505 1500 1490 1479 1458 1452 1455 1459 1464 1472 1485 1495 1499 1502 1510 1515 1523 1527 1529 1535 1541 1547 1552 1557 1561 1565 1568 1571 1574 1576 1578 1580 1581 1583 1585 1586 1587 1588 1590 1591 1593
1507 1526 1527 1539 1527 1521 1522 1522 1502 1496 1486 1479 1462 1449 1462 1462 1463 1470 1478 1489 1500 1502 1501 1505 1514 1522 1528 1530 1535 1541 1547 1552 1556 1560 1564 1568 1570 1573 1574 1577 1578 1579 1581 1583 1584 1586 1587 1588 1590